Volver al catálogo

COSMOS 917 DEB

ActivoHEO
NORAD 27884·DEBRIS·🇷🇺 Russia

Lanzado Jun 16, 1977 desde Plesetsk Cosmodrome

Loading…

Próximos Pases (próximas 24 horas)

TLE

ActualizadoSource: Space-Track

Época: Sep 13, 2026, 03:50 UTC

1 27884U 77047G   26256.16008912  .00000446  00000-0  13645-2 0  9997
2 27884  59.9027 194.3993 7461990  70.5963 351.2906  2.01925117175655

Sigue COSMOS 917 DEB en tiempo real con AllMySat

Download on the App Store